Wetbulb
60.67 60.62 60.24 59.55 59.79 60.11 60.07 59.98 60.48 60.36 60.10 60.61 61.01 60.99 60.38 59.43 59.11 59.06 58.59 57.62 57.53 57.43
61.22 60.88 59.77 60.23 60.26 60.22 60.31 60.64 60.27 60.53 60.41 60.84 61.20 61.07 59.86 59.11 59.26 59.28 58.32 58.06 58.02 58.37
61.02 61.36 61.11 60.39 60.25 60.36 59.92 60.21 60.35 60.22 60.58 60.63 60.79 60.81 60.13 59.53 61.06 59.34 58.19 58.80 58.34 58.50
60.78 61.39 61.01 60.20 60.43 60.52 60.03 59.96 60.69 61.63 61.36 60.80 60.91 60.70 59.55 59.09 59.92 57.43 58.28 59.57 59.48 58.92
61.18 60.87 60.40 60.53 60.34 59.41 59.66 60.07 61.11 62.07 61.53 61.65 61.24 59.60 59.80 59.71 60.66 60.65 59.33 59.43 58.36 58.24
61.68 59.82 59.88 60.35 59.98 58.68 59.64 59.24 60.05 60.97 61.34 61.34 60.73 60.13 60.33 61.02 60.64 60.91 60.51 60.07 59.85 59.73
59.74 60.00 60.15 60.49 59.74 59.54 60.30 60.10 61.33 61.11 61.22 60.54 60.02 60.07 59.81 60.41 60.35 61.28 61.06 61.25 61.05 60.74
59.75 60.32 60.67 60.48 60.42 60.54 62.28 62.09 61.96 60.02 59.20 59.17 59.37 58.50 58.75 60.58 60.25 61.33 61.17 60.70 60.86 60.58
60.47 60.86 60.46 60.31 60.09 62.00 61.71 61.96 60.90 59.09 58.87 57.38 57.56 48.85 50.21 56.19 60.90 60.80 59.69 58.72 59.32 59.36
60.97 60.92 60.64 60.69 60.11 60.16 60.22 59.55 58.12 57.67 57.19 55.41 54.33 45.72 46.11 50.85 60.76 59.23 58.09 58.44 60.27 60.09
60.92 60.62 60.82 60.07 59.04 58.40 58.57 58.19 57.87 56.55 55.89 54.57 54.26 45.37 46.13 51.93 60.47 59.38 59.88 59.04 60.70 59.72
60.98 60.30 60.49 60.02 58.30 57.98 58.07 57.55 57.37 56.21 55.27 54.47 53.60 45.04 47.22 55.44 59.62 59.68 59.90 60.50 60.75 60.22
60.89 60.56 59.95 59.35 58.74 58.30 58.20 59.98 59.35 55.91 54.75 52.69 54.06 45.21 47.04 54.96 59.96 59.29 58.40 58.31 57.27 51.55
60.52 60.14 60.26 59.34 58.94 57.99 58.29 58.74 58.55 57.21 54.90 54.81 53.88 52.47 46.68 49.94 59.51 58.69 58.11 57.33 56.57 55.00
MSLP
1003.65 1004.24 1004.78 1005.16 1005.55 1005.88 1006.13 1006.18 1006.33 1006.61 1006.86 1007.04 1007.22 1007.34 1007.43 1007.69 1007.88 1007.96 1008.21 1008.41 1008.54 1008.58
1003.87 1004.32 1004.81 1005.10 1005.30 1005.61 1005.78 1006.08 1006.35 1006.60 1006.78 1006.91 1006.96 1007.06 1007.28 1007.48 1007.64 1007.72 1007.94 1008.04 1007.97 1008.15
1003.93 1004.26 1004.63 1004.90 1005.32 1005.55 1005.78 1006.06 1006.34 1006.51 1006.65 1006.73 1006.78 1006.90 1007.02 1007.24 1007.44 1007.68 1007.68 1007.72 1007.74 1007.84
1004.05 1004.33 1004.60 1004.94 1005.25 1005.57 1005.77 1006.09 1006.24 1006.41 1006.45 1006.64 1006.70 1006.79 1006.93 1007.09 1007.35 1007.53 1007.59 1007.52 1007.50 1007.66
1004.04 1004.36 1004.82 1005.10 1005.28 1005.50 1005.83 1006.06 1006.15 1006.29 1006.47 1006.66 1006.72 1006.79 1006.89 1007.07 1007.18 1007.31 1007.46 1007.40 1007.44 1007.56
1004.05 1004.50 1004.79 1005.04 1005.33 1005.63 1005.86 1006.05 1006.29 1006.32 1006.58 1006.67 1006.82 1006.88 1006.91 1007.10 1007.18 1007.26 1007.29 1007.40 1007.45 1007.62
1004.11 1004.45 1004.72 1004.96 1005.32 1005.59 1005.73 1006.07 1006.24 1006.47 1006.70 1006.75 1006.89 1007.04 1006.95 1007.03 1007.20 1007.23 1007.29 1007.34 1007.44 1007.58
1003.96 1004.37 1004.66 1005.06 1005.25 1005.47 1005.71 1006.05 1006.31 1006.66 1006.91 1007.04 1007.13 1007.29 1007.24 1007.12 1007.32 1007.27 1007.43 1007.53 1007.65 1007.76
1003.96 1004.40 1004.76 1005.18 1005.25 1005.39 1005.72 1006.12 1006.46 1006.91 1007.18 1007.50 1007.68 1007.61 1007.41 1007.33 1007.42 1007.54 1007.64 1007.90 1008.08 1008.19
1003.97 1004.35 1004.82 1005.14 1005.37 1005.66 1006.00 1006.47 1006.92 1007.26 1007.54 1007.98 1008.05 1007.88 1007.66 1007.46 1007.63 1007.86 1008.10 1008.34 1008.44 1008.64
1003.98 1004.38 1004.79 1005.21 1005.58 1005.98 1006.35 1006.69 1007.06 1007.57 1007.88 1008.25 1008.42 1008.25 1007.85 1007.78 1007.97 1008.25 1008.46 1008.65 1008.77 1009.03
1003.89 1004.33 1004.82 1005.37 1005.82 1006.11 1006.53 1006.95 1007.30 1007.71 1008.08 1008.42 1008.63 1008.59 1008.17 1008.16 1008.37 1008.72 1008.89 1009.04 1009.19 1009.39
1003.65 1004.18 1004.69 1005.27 1005.78 1006.13 1006.58 1007.10 1007.51 1008.05 1008.28 1008.49 1008.69 1008.71 1008.53 1008.51 1008.78 1009.10 1009.32 1009.58 1009.81 1009.88
1003.63 1004.16 1004.66 1005.29 1005.78 1006.17 1006.68 1007.28 1007.72 1008.12 1008.56 1008.68 1008.80 1008.95 1008.80 1008.85 1009.05 1009.37 1009.69 1010.01 1010.33 1010.67
Wind_Speed
8 5 5 5 4 4 4 3 4 4 4 5 5 5 4 2 3 4 4 5 5 4
7 7 6 6 5 4 3 3 5 5 5 4 4 5 5 3 5 4 3 5 5 4
7 7 6 6 5 5 4 3 5 5 4 4 5 5 6 3 2 4 2 2 4 3
6 6 6 5 5 6 4 6 5 5 5 4 3 3 3 3 4 5 4 2 3 3
7 6 6 5 5 5 6 4 5 5 4 3 2 3 4 4 4 5 4 3 2 1
7 6 6 6 5 4 5 4 3 4 5 5 4 3 3 4 3 5 4 4 3 3
7 6 6 5 5 5 4 5 4 5 5 5 4 3 2 3 3 3 4 3 4 4
6 6 6 5 5 3 3 5 7 7 5 4 4 3 4 2 5 5 5 4 4 3
7 6 6 5 4 2 7 7 6 6 6 5 3 6 7 4 5 5 6 5 4 4
6 6 6 6 5 5 6 7 6 6 6 5 3 7 7 2 5 6 5 5 4 5
6 7 6 6 6 6 5 6 6 6 5 5 2 7 6 6 6 5 5 5 5 6
7 7 7 6 6 5 6 5 4 5 6 6 2 7 7 7 6 7 6 5 5 7
7 8 7 7 6 4 4 5 5 5 4 6 4 6 5 7 6 7 5 5 5 9
7 8 7 7 4 5 6 7 6 6 4 4 3 3 5 9 6 6 5 4 4 4
Wind_Direction
110 118 121 141 153 162 178 174 165 175 172 192 194 196 188 181 198 200 203 215 209 199
119 118 131 132 133 150 146 160 168 170 187 193 204 189 185 197 201 193 191 221 209 193
129 132 133 126 134 143 153 141 164 175 183 180 200 195 188 197 147 170 178 200 158 171
134 133 129 141 146 158 158 163 173 178 166 183 183 173 169 190 169 170 178 165 151 160
134 137 138 147 155 160 169 180 179 186 154 159 160 155 149 183 179 167 181 184 158 73
132 144 153 168 154 162 155 183 196 174 150 142 122 107 126 150 156 183 166 190 145 115
157 158 160 164 163 166 173 147 139 112 125 122 118 104 95 109 135 131 142 156 156 118
153 153 147 160 165 185 182 141 130 125 111 98 75 38 17 38 122 139 122 101 98 112
141 156 145 158 150 116 132 131 122 114 116 91 59 24 18 21 118 103 115 113 90 100
151 142 149 145 133 122 131 119 128 116 113 108 87 14 7 16 111 117 111 108 102 100
146 145 146 132 132 122 128 130 132 122 125 118 59 357 35 98 100 100 104 104 95 115
157 150 141 145 147 143 131 132 139 131 140 128 64 5 65 100 89 96 93 93 89 116
150 153 151 151 152 140 134 121 126 117 138 139 123 30 91 104 112 111 97 84 88 105
143 146 143 137 130 127 122 120 121 123 128 137 117 57 126 117 123 127 111 107 101 113